Theta_e
312 312 312 311 308 303 294 284 278 289 286 278 263 268 266 281 279 281 280 278 276 268 269 267 272 274 277 281 281 275 279 273 267 268 275 279 276 270 270 264 267 267 268 266
312 312 312 311 307 301 288 278 280 288 285 273 268 269 275 279 279 279 279 278 278 272 268 267 271 276 281 282 280 277 278 272 265 269 274 277 273 272 271 273 270 264 262 263
312 311 311 311 307 301 287 281 278 280 279 277 275 271 270 271 280 279 281 280 279 270 266 273 267 275 280 281 281 284 279 273 272 267 268 272 270 271 271 268 260 263 264 263
312 311 311 310 306 301 288 280 274 272 273 273 278 276 275 274 272 279 280 277 272 271 266 264 264 274 277 280 282 278 278 267 269 268 269 274 272 270 269 265 265 263 264 263
312 312 311 310 306 301 287 279 278 274 269 276 278 279 274 277 277 277 274 270 270 271 268 271 267 275 276 275 278 276 276 267 267 267 270 274 273 272 271 268 266 266 267 265
311 311 311 309 306 298 285 283 283 282 277 277 274 276 277 277 278 279 279 278 275 269 273 277 277 278 279 279 276 276 273 274 269 266 269 270 268 271 270 269 268 266 261 265
311 311 311 309 306 298 288 285 283 280 273 274 277 279 279 277 278 276 278 279 273 279 281 279 277 278 279 278 278 278 275 274 268 263 266 265 275 276 274 272 270 268 267 267
311 311 310 308 306 299 292 288 284 280 272 276 279 279 278 277 276 277 278 279 280 280 277 268 266 269 269 268 274 275 275 272 263 264 262 275 274 273 271 269 270 270 268 267
311 310 310 308 306 300 293 291 288 284 278 276 281 277 277 272 270 272 276 280 281 279 275 265 261 264 261 267 270 278 278 274 268 260 261 265 270 273 276 274 271 271 269 267
311 310 310 308 306 302 294 290 288 284 278 278 277 273 274 276 271 270 273 278 276 278 265 262 263 264 263 267 262 267 265 266 263 260 261 269 269 273 276 269 271 267 267 268
310 310 309 308 305 301 295 288 289 286 278 279 280 280 276 277 274 269 274 274 274 269 265 263 262 265 266 266 267 270 270 266 261 258 261 265 270 273 271 267 264 263 264 266
310 310 309 307 304 301 297 288 289 288 283 280 282 281 281 281 280 277 277 276 274 273 266 264 264 263 262 266 267 275 269 272 268 268 268 268 266 265 266 264 265 265 269 269
310 309 309 306 304 301 296 288 287 286 281 279 278 273 280 282 281 282 274 278 279 274 273 268 266 266 270 265 268 273 274 277 272 271 271 267 266 268 268 269 272 274 273 272
309 309 307 305 303 300 295 289 288 287 283 276 272 283 279 281 281 283 282 281 281 278 274 270 264 265 276 272 274 272 275 276 274 273 273 271 272 273 272 271 272 272 272 271
309 308 306 304 302 299 292 289 288 287 287 274 270 278 279 282 280 283 282 284 283 280 278 269 267 274 277 277 276 275 276 275 273 273 277 276 276 275 275 273 272 272 271 269
308 307 305 303 300 299 294 288 289 286 285 277 267 272 274 277 282 282 283 283 282 277 279 276 279 280 277 273 271 276 278 279 279 278 278 276 275 275 275 273 272 271 270 270
307 305 303 301 301 295 287 286 287 287 285 279 269 266 277 278 279 279 279 281 278 278 278 276 278 279 278 275 272 276 276 275 274 275 274 271 272 271 272 270 269 267 265 264
306 303 302 300 297 293 287 286 289 284 280 278 268 264 270 278 272 270 276 274 276 270 269 276 275 274 274 270 275 276 275 273 271 273 269 273 273 271 269 267 266 264 264 263
302 300 299 294 288 285 284 291 287 282 282 271 264 267 266 276 272 271 274 274 270 265 265 268 269 259 266 272 273 276 274 277 275 267 266 268 271 269 267 265 264 265 265 262
301 295 286 281 283 292 291 285 283 283 273 268 267 263 265 273 274 271 268 271 263 262 262 262 257 262 268 272 273 274 277 274 272 268 263 261 261 267 266 266 267 268 266 263
286 281 278 284 292 286 283 278 279 274 270 268 265 266 269 273 266 264 267 260 257 259 260 259 254 259 267 264 272 272 278 274 276 269 276 274 272 270 268 266 265 264 263 263
287 284 285 283 283 281 280 274 266 265 271 264 270 270 270 269 268 264 263 259 257 262 252 257 259 269 267 260 260 270 277 274 275 266 271 270 271 271 270 268 265 263 262 259
288 285 280 282 278 277 276 269 266 260 266 268 269 270 270 268 266 260 259 260 261 254 255 263 267 268 263 259 255 263 270 274 271 262 262 267 266 267 268 266 265 262 261 260
285 282 276 279 275 275 275 274 274 270 272 272 272 267 271 264 264 260 263 255 255 256 258 266 269 267 263 257 255 265 269 273 272 270 266 267 267 266 263 267 264 264 261 259
284 284 280 276 273 264 261 264 269 269 276 270 269 270 271 264 261 258 257 257 258 262 269 269 270 263 256 256 258 264 269 271 271 267 267 266 265 265 264 263 264 265 262 260
285 282 277 272 273 266 266 266 269 272 273 269 271 268 270 265 262 259 263 264 265 271 267 269 260 259 255 257 258 261 265 270 270 267 265 264 264 265 263 260 263 263 262 261
281 275 272 269 274 275 273 272 273 275 272 272 270 270 272 262 258 261 263 267 271 270 268 260 258 260 258 256 259 260 263 264 264 263 264 264 261 260 261 261 258 261 261 262
Wind_Speed
12 10 9 7 5 4 7 3 3 3 2 7 1 2 6 4 2 2 1 3 3 4 3 3 3 4 3 7 9 9 3 4 5 5 4 8 9 14 5 3 5 4 3 3
13 12 11 9 7 4 4 2 2 2 4 4 3 5 2 2 0 1 1 3 3 1 2 4 3 4 4 6 7 5 7 4 6 10 2 8 8 22 19 2 4 13 5 7
15 13 12 10 9 7 6 3 3 6 6 1 5 1 2 4 1 3 2 3 3 4 5 2 5 5 4 11 3 13 2 3 2 2 7 4 18 22 21 13 4 6 7 12
17 15 14 13 12 10 5 4 2 3 2 4 3 2 3 2 4 3 2 2 2 3 2 4 3 4 7 4 10 5 4 2 4 6 3 0 13 16 20 18 12 7 9 11
18 17 17 16 14 9 5 5 5 2 2 1 1 2 2 1 3 3 3 4 3 5 5 7 4 3 3 3 9 7 5 4 5 5 4 4 10 22 19 17 15 6 10 10
19 19 19 19 18 6 3 1 1 4 2 2 3 4 4 3 2 4 4 4 3 2 8 6 9 6 6 9 6 7 5 5 6 7 7 5 5 20 11 11 15 6 10 9
21 21 20 20 20 7 4 3 4 5 3 2 4 3 3 3 4 3 3 2 4 2 3 3 3 1 4 5 7 7 6 5 3 4 8 10 5 11 3 6 20 19 11 12
23 21 21 22 21 13 4 3 4 4 1 2 2 3 3 3 3 2 3 2 3 4 2 4 6 5 5 4 5 3 6 1 4 5 2 1 3 9 8 6 11 18 16 17
23 22 23 22 21 16 5 2 2 4 6 5 1 3 1 2 2 5 3 1 3 3 2 5 5 2 4 8 12 2 2 4 5 5 7 5 4 5 6 1 11 15 16 16
27 26 24 24 22 17 6 2 1 4 4 1 3 3 3 3 2 2 3 5 5 3 3 5 3 0 2 3 3 7 6 6 5 3 2 6 3 13 4 6 1 4 5 8
27 26 25 25 23 18 6 3 2 3 4 1 1 2 3 1 2 3 4 3 3 4 5 4 3 3 4 1 3 3 1 3 1 2 5 5 5 3 7 4 2 3 2 2
28 28 28 27 24 19 9 4 1 2 6 3 2 3 2 1 1 3 3 3 0 3 4 1 3 1 1 3 1 1 1 5 4 5 6 4 3 4 3 4 4 2 3 3
28 29 29 28 26 21 8 4 4 4 4 3 3 1 3 1 3 2 3 0 2 1 4 4 2 3 3 3 5 2 2 3 3 3 4 4 4 2 3 5 4 4 4 5
28 31 32 30 27 22 10 4 3 3 4 4 3 1 2 4 3 3 1 4 3 4 2 3 3 3 1 1 2 3 4 6 6 3 2 1 6 7 7 5 4 6 5 4
29 32 32 32 30 22 10 4 0 0 4 4 2 2 3 4 4 1 1 1 3 1 0 3 2 2 1 2 2 6 8 10 7 7 11 6 6 12 12 11 9 8 7 6
28 31 34 33 32 23 6 1 2 3 3 6 2 3 4 4 4 3 2 3 2 1 1 1 1 2 2 2 5 8 10 7 6 6 9 3 8 12 10 10 11 9 8 6
29 34 35 35 32 9 4 3 1 6 2 5 3 2 2 1 2 2 2 3 2 1 1 1 1 1 1 3 6 7 5 3 3 9 13 5 4 8 9 8 8 7 6 5
31 34 34 32 28 17 6 4 5 2 6 4 5 1 2 1 2 1 1 2 2 3 1 1 1 2 1 9 13 3 6 9 4 9 4 4 10 11 9 6 9 8 8 7
37 37 32 11 7 3 4 11 8 3 4 4 3 6 4 2 2 2 2 1 1 2 1 1 1 3 11 15 10 14 13 16 15 7 6 4 12 15 11 9 9 8 10 9
38 13 6 4 1 18 15 5 3 4 4 4 3 1 3 3 2 1 3 1 1 2 3 1 2 10 10 12 10 7 17 10 21 10 2 3 3 14 16 18 15 12 12 11
4 5 4 2 16 3 3 4 3 0 3 2 3 4 6 1 5 4 1 3 1 2 5 4 4 9 9 5 14 10 15 16 21 2 10 13 9 20 18 12 11 9 12 13
10 14 8 3 2 3 5 3 1 2 7 2 6 4 4 3 3 5 1 4 3 5 0 4 6 11 7 3 5 9 15 15 16 3 9 11 11 14 13 12 12 10 9 10
6 6 5 4 1 4 10 11 5 2 6 7 5 5 4 3 3 5 3 5 5 1 3 7 11 5 5 5 3 4 5 12 8 4 3 7 8 10 13 12 9 11 11 10
5 6 7 5 6 7 7 7 6 3 5 10 6 5 3 3 4 3 6 1 3 2 2 11 6 7 5 4 4 7 10 13 13 11 8 10 11 9 6 11 12 14 13 12
4 5 7 7 2 4 1 0 4 2 8 8 5 4 2 3 6 2 5 4 5 8 9 6 5 5 2 3 4 6 10 11 10 8 9 9 9 11 10 9 13 13 13 14
3 3 6 2 3 2 2 1 3 3 6 2 3 5 4 2 6 5 10 9 10 8 7 5 2 3 3 5 5 4 4 8 8 9 7 7 9 10 9 7 8 10 13 15
3 3 3 2 2 5 4 4 5 8 5 3 4 5 3 5 3 4 7 9 6 5 5 3 4 4 3 4 5 5 6 7 7 7 7 6 6 8 8 11 8 8 8 9
Wind_Direction
186 189 199 202 184 122 55 88 23 308 45 46 4 115 187 221 311 108 288 221 225 206 313 316 301 304 274 8 324 334 333 272 288 254 269 14 30 1 335 262 29 319 306 76
183 185 188 186 177 144 118 102 250 333 76 89 325 310 284 266 89 254 246 277 173 97 263 347 243 288 267 357 333 335 352 330 330 348 334 10 21 10 4 356 353 14 20 329
182 180 180 173 162 144 86 74 8 332 48 101 123 107 318 321 302 259 233 268 59 27 1 293 291 306 313 341 330 358 21 294 309 293 262 323 9 17 20 22 27 318 34 335
181 178 175 171 160 149 93 34 242 219 312 341 92 94 154 321 4 229 187 300 166 153 333 315 286 286 303 322 1 354 47 325 336 278 235 282 23 19 20 28 7 37 332 26
182 176 173 169 156 143 81 127 141 314 132 228 120 286 241 268 302 220 274 170 192 190 189 187 268 349 347 327 331 343 5 315 7 296 310 278 5 22 23 23 12 7 353 37
180 176 175 166 158 132 115 137 31 107 327 80 80 221 179 215 150 242 239 245 139 187 234 211 226 223 267 278 308 327 344 326 8 309 333 346 359 10 15 32 30 338 21 331
181 177 175 168 166 144 124 173 119 93 274 114 214 192 196 224 215 245 301 226 130 234 303 315 33 154 234 248 274 245 305 330 60 282 357 37 355 20 348 14 32 20 9 356
179 178 175 173 168 152 105 156 127 126 183 188 256 219 224 306 296 237 242 286 212 318 42 51 28 345 25 321 272 302 202 298 56 70 48 206 9 4 350 0 29 18 3 0
178 178 178 173 168 144 101 123 116 113 118 251 159 140 137 240 294 337 262 341 319 22 57 62 87 40 213 327 338 267 47 49 94 29 80 26 242 327 309 162 41 17 4 3
180 178 178 172 166 152 114 109 131 101 112 247 131 160 170 121 98 215 303 339 355 50 33 63 99 235 205 39 5 331 346 7 71 23 75 291 278 312 300 58 229 9 9 7
179 177 177 170 162 149 117 107 17 109 106 69 157 341 125 88 97 134 265 39 338 35 57 104 218 121 215 74 235 151 34 19 317 68 52 341 13 325 100 198 322 140 3 22
182 176 171 167 156 143 115 105 53 68 77 131 90 96 64 15 105 151 351 127 344 157 89 12 93 87 67 145 265 267 346 171 185 167 205 240 281 162 213 170 157 219 145 135
183 175 167 161 155 150 115 113 145 77 107 56 67 263 327 45 32 263 121 191 155 356 160 156 162 116 114 149 246 173 240 172 138 78 238 237 220 239 183 183 168 139 104 101
178 169 163 157 151 140 114 128 159 93 103 118 277 176 25 306 349 246 176 131 101 120 122 103 127 130 159 264 241 237 197 137 164 245 222 273 224 211 169 156 133 120 102 115
176 169 159 150 140 123 90 86 101 306 132 151 181 23 338 308 350 318 147 148 93 77 212 79 226 196 153 310 286 242 188 176 173 207 180 164 183 171 162 159 169 160 146 128
173 162 152 139 134 125 98 93 231 185 134 105 88 260 7 341 340 348 121 46 53 78 178 189 212 185 167 226 250 264 200 189 173 171 140 79 111 144 151 158 157 159 148 144
163 154 146 138 137 120 107 174 156 149 134 97 87 27 15 331 326 355 32 37 50 26 265 247 265 180 233 232 235 251 171 118 79 122 110 54 219 181 162 136 135 116 105 101
151 138 132 118 107 113 67 11 86 79 91 69 118 297 336 331 208 111 323 79 39 20 335 318 311 330 231 249 231 220 152 123 127 179 12 158 125 122 136 118 136 146 155 147
124 118 108 86 45 96 111 131 86 57 112 149 113 148 201 198 177 135 41 128 219 276 171 191 286 260 227 225 197 185 186 176 172 118 73 107 146 158 157 148 164 166 174 168
122 99 79 109 196 135 143 28 36 353 343 39 122 63 154 164 130 121 80 345 162 241 254 5 153 256 267 246 217 188 179 167 142 121 141 127 154 173 178 191 187 183 174 162
69 92 78 99 147 104 53 105 160 231 307 142 145 156 140 268 125 178 120 180 147 55 257 138 286 273 248 249 208 188 180 174 184 146 178 180 176 175 176 185 182 165 159 177
119 107 99 123 141 92 129 162 64 183 216 201 146 172 145 140 112 103 262 121 61 240 216 67 271 252 251 222 230 185 179 175 192 154 152 152 153 170 170 168 170 169 156 140
85 81 106 153 73 147 192 185 230 234 169 178 164 130 124 120 80 74 105 98 207 58 46 235 236 263 263 232 219 193 181 167 143 147 115 131 131 140 159 160 161 151 156 157
97 148 133 182 178 225 188 187 176 177 124 142 125 114 155 139 83 139 103 250 74 38 295 238 249 241 256 231 193 138 183 179 169 172 158 160 160 166 147 160 155 157 167 166
142 149 169 196 116 69 359 302 92 26 141 124 116 97 100 85 98 53 109 56 251 212 231 234 240 238 228 215 196 180 165 175 174 156 171 173 160 165 167 163 164 167 157 167
161 104 109 92 77 60 77 0 134 182 147 90 65 113 120 172 133 119 212 143 220 241 222 236 262 260 226 204 190 191 167 172 162 153 154 148 164 172 165 123 160 170 169 174
113 90 79 101 18 120 140 163 204 139 115 167 126 131 159 99 57 253 198 209 220 225 251 244 217 230 257 204 156 167 167 162 155 149 159 151 129 128 137 169 188 169 171 174